Weather History for Alexandria Esle, LA

Change the Weather History Date:

Monday, June 16, 2014

  Actual Average Record
Temperature  
Mean Temperature 83 °F -  
Max Temperature 91 °F 89 °F 100 °F (2011)
Min Temperature 73 °F 68 °F 59 °F (1989)
Cooling Degree Days 18    
Growing Degree Days 33 (Base 50)    
Moisture  
Dew Point 73 °F    
Average Humidity 69    
Maximum Humidity 90    
Minimum Humidity 55    
Precipitation  
Precipitation 0.00 in - - ()
Sea Level Pressure  
Sea Level Pressure 30.08 in    
Wind  
Wind Speed 6 mph (SSE)    
Max Wind Speed 9 mph    
Max Gust Speed -    
Visibility 10 miles    
Events Rain , Thunderstorm    
Averages and records for this station are not official NWS values.
T = Trace of Precipitation, MM = Missing Value Source: NWS Daily Summary

Daily Weather History Graph

Daily Weather History Graph

Search for Another Location

Airport:

Trip Planner

Search our weather history database for the weather conditions in past years. The results will help you decide how hot, cold, wet, or windy it might be!

Date:

Astronomy

Jun. 16, 2014 Rise Set
Actual Time 6:04 AM CDT 8:15 PM CDT
Civil Twilight 5:36 AM CDT 8:43 PM CDT
Nautical Twilight 5:02 AM CDT 9:17 PM CDT
Astronomical Twilight 4:25 AM CDT 9:54 PM CDT
Moon 11:22 PM CDT (6/16) 9:56 AM CDT (6/16)
Length of Visible Light 15h 07m
Length of Day
14h 11m
Waning Gibbous, 83% of the Moon is Illuminated
Jun 16
Waning Gibbous
Jun 19
Last Quarter
Jun 27
New
Jul 5
First Quarter
Jul 12
Full

Hourly Weather History & Observations

Time (CDT) Temp. Heat Index Dew Point Humidity Pressure Visibility Wind Dir Wind Speed Gust Speed Precip Events Conditions
12:53 AM - - - N/A% 30.04 in - North - - N/A   Unknown
1:53 AM - - - N/A% 30.03 in - North - - N/A   Unknown
2:53 AM - - - N/A% 30.04 in - North - - N/A   Unknown
3:53 AM - - - N/A% 30.06 in - North - - N/A   Unknown
4:53 AM - - - N/A% 30.07 in - North - - N/A   Unknown
5:53 AM - - - N/A% 30.09 in - North - - N/A   Unknown
6:53 AM - - - N/A% 30.11 in - North - - N/A   Unknown
7:53 AM - - - N/A% 30.13 in - North - - N/A   Unknown
8:53 AM - - - N/A% 30.15 in - North - - N/A   Unknown
9:53 AM - - - N/A% 30.14 in - North - - N/A   Unknown
10:53 AM 86.0 °F 93.8 °F 73.9 °F 67% 30.13 in 10.0 mi South 8.1 mph - N/A   Partly Cloudy
11:53 AM 86.0 °F 93.0 °F 73.0 °F 65% 30.12 in 10.0 mi SSW 4.6 mph - N/A   Clear
12:17 PM 89.1 °F 98.0 °F 73.9 °F 61% 30.11 in 10.0 mi SSE 6.9 mph - N/A Thunderstorm Partly Cloudy
12:32 PM 88.0 °F 95.6 °F 73.0 °F 61% 30.11 in 10.0 mi South 8.1 mph - N/A   Partly Cloudy
12:53 PM 89.1 °F 98.0 °F 73.9 °F 61% 30.11 in 10.0 mi SE 9.2 mph - N/A   Scattered Clouds
1:53 PM 90.0 °F 100.2 °F 75.0 °F 61% 30.09 in 10.0 mi South 5.8 mph - N/A   Mostly Cloudy
2:53 PM 91.0 °F 99.3 °F 73.0 °F 55% 30.07 in 10.0 mi South 9.2 mph - N/A   Partly Cloudy
3:53 PM 91.0 °F 101.6 °F 75.0 °F 59% 30.05 in 10.0 mi SSE 6.9 mph - N/A   Scattered Clouds
4:53 PM 90.0 °F 97.9 °F 73.0 °F 57% 30.04 in 10.0 mi SE 9.2 mph - N/A   Clear
5:23 PM 82.9 °F 86.5 °F 69.1 °F 63% 30.06 in 10.0 mi NNW 6.9 mph - 0.00 in Thunderstorm Mostly Cloudy
5:46 PM 82.9 °F 88.0 °F 72.0 °F 69% 30.06 in 10.0 mi Calm Calm - 0.00 in Rain Light Rain
5:53 PM 84.9 °F 90.1 °F 71.1 °F 63% 30.05 in 10.0 mi Calm Calm - 0.00 in   Mostly Cloudy
6:53 PM 81.0 °F 85.8 °F 73.0 °F 77% 30.06 in 10.0 mi East 3.5 mph - 0.00 in   Clear
7:53 PM 80.1 °F 84.2 °F 73.0 °F 79% 30.06 in 10.0 mi ESE 4.6 mph - N/A   Partly Cloudy
8:53 PM 77.0 °F - 73.0 °F 88% 30.06 in 10.0 mi Calm Calm - N/A   Clear
9:53 PM 75.9 °F - 72.0 °F 87% 30.07 in 10.0 mi Calm Calm - N/A   Clear
10:53 PM 75.0 °F - 71.1 °F 87% 30.08 in 10.0 mi Calm Calm - N/A   Clear
11:53 PM 73.0 °F - 70.0 °F 90% 30.09 in 10.0 mi Calm Calm - N/A   Clear